Satellite-Ground Cal/Val Region Overpasses Predictions

Prediction of Satellite NPP Overpassing Cal/Val Region: PacNW

Region Location: (Latitude: 10.00, Longitude: 139.50) to (Latitude: 22.70, Longitude: 165.60).

Table of predicted overpasses for the next 14.0 days since TLE Epoch: 1/14/2024
Interval Starting Time Starting Location Ending Time Ending Location
1 01/14/2024 02:52:37 ( 10.05, 156.65) 01/14/2024 02:56:12 ( 22.68, 153.65)
2 01/14/2024 15:24:30 ( 22.67, 153.89) 01/14/2024 15:28:05 ( 10.05, 150.89)
3 01/15/2024 02:33:35 ( 10.05, 161.41) 01/15/2024 02:37:10 ( 22.68, 158.40)
4 01/15/2024 15:05:28 ( 22.68, 158.65) 01/15/2024 15:09:03 ( 10.06, 155.64)
5 01/16/2024 02:15:16 ( 12.52, 165.60) 01/16/2024 02:18:09 ( 22.68, 163.16)
6 01/16/2024 03:56:04 ( 10.06, 140.79) 01/16/2024 03:57:38 ( 15.58, 139.51)
7 01/16/2024 14:46:27 ( 22.68, 163.40) 01/16/2024 14:50:02 ( 10.06, 160.40)
8 01/17/2024 03:37:02 ( 10.06, 145.54) 01/17/2024 03:40:37 ( 22.68, 142.54)
9 01/17/2024 14:30:27 ( 11.99, 165.60) 01/17/2024 14:31:00 ( 10.05, 165.15)
10 01/17/2024 16:08:55 ( 22.67, 142.78) 01/17/2024 16:12:30 ( 10.05, 139.78)
11 01/18/2024 03:18:00 ( 10.00, 150.31) 01/18/2024 03:21:36 ( 22.69, 147.30)
12 01/18/2024 15:49:54 ( 22.67, 147.54) 01/18/2024 15:53:29 ( 10.05, 144.53)
13 01/19/2024 02:58:59 ( 10.01, 155.07) 01/19/2024 03:02:35 ( 22.69, 152.05)
14 01/19/2024 15:30:52 ( 22.66, 152.29) 01/19/2024 15:34:27 ( 10.04, 149.29)
15 01/20/2024 02:39:57 ( 10.02, 159.82) 01/20/2024 02:43:33 ( 22.70, 156.80)
16 01/20/2024 15:11:51 ( 22.65, 157.05) 01/20/2024 15:15:26 ( 10.03, 154.04)
17 01/21/2024 02:20:56 ( 10.03, 164.58) 01/21/2024 02:24:31 ( 22.65, 161.57)
18 01/21/2024 14:52:49 ( 22.64, 161.80) 01/21/2024 14:56:24 ( 10.02, 158.80)
19 01/22/2024 03:43:24 ( 10.04, 143.95) 01/22/2024 03:46:59 ( 22.66, 140.95)
20 01/22/2024 14:34:55 ( 18.70, 165.59) 01/22/2024 14:37:23 ( 10.01, 163.55)
21 01/22/2024 16:15:17 ( 22.69, 141.19) 01/22/2024 16:17:15 ( 15.76, 139.51)
22 01/23/2024 03:24:23 ( 10.05, 148.71) 01/23/2024 03:27:58 ( 22.68, 145.70)
23 01/23/2024 15:56:15 ( 22.67, 145.95) 01/23/2024 15:59:50 ( 10.05, 142.94)
24 01/24/2024 03:05:20 ( 10.01, 153.47) 01/24/2024 03:08:56 ( 22.69, 150.46)
25 01/24/2024 15:37:14 ( 22.66, 150.70) 01/24/2024 15:40:49 ( 10.04, 147.70)
26 01/25/2024 02:46:19 ( 10.03, 158.23) 01/25/2024 02:49:54 ( 22.65, 155.23)
27 01/25/2024 15:18:13 ( 22.64, 155.45) 01/25/2024 15:21:48 ( 10.02, 152.45)
28 01/26/2024 02:27:17 ( 10.04, 162.98) 01/26/2024 02:30:52 ( 22.67, 159.98)
29 01/26/2024 14:59:10 ( 22.68, 160.22) 01/26/2024 15:02:46 ( 10.01, 157.20)
30 01/27/2024 02:10:51 ( 19.17, 165.60) 01/27/2024 02:11:51 ( 22.69, 164.73)
31 01/27/2024 03:49:45 ( 10.01, 142.37) 01/27/2024 03:53:11 ( 22.11, 139.50)
32 01/27/2024 14:40:09 ( 22.66, 164.97) 01/27/2024 14:43:44 ( 10.05, 161.97)
